Location: Caltech
(34.1382°N, 118.1253°W)
Time: 13:11:26
(UTC-08:00)

Uosat F - Visible Passes

Search period start: 11 February 2016 00:00
Search period end: 21 February 2016 00:00
Orbit: 751 x 761 km, 98.8° (Epoch: 11 February)

Date Brightness Start Highest point End Pass type
(mag) Time Alt. Az. Time Alt. Az. Time Alt. Az.
11 Feb 11.4 05:20:33 10° NNE 05:25:36 70° ESE 05:30:38 10° S visible
11 Feb 14.7 18:12:33 10° WSW 18:14:01 11° W 18:15:29 10° WNW visible
12 Feb 13.2 04:41:51 10° NE 04:46:05 27° E 04:50:19 10° SSE visible
13 Feb 11.0 05:40:31 10° N 05:45:33 74° WNW 05:50:35 10° SSW visible
14 Feb 12.3 05:01:21 10° NNE 05:06:09 43° E 05:10:56 10° S visible
15 Feb 13.9 04:23:21 10° NE 04:26:32 17° E 04:29:42 10° SE visible
15 Feb 11.4 06:00:39 10° N 06:05:28 46° WNW 06:10:16 10° SW visible
16 Feb 11.4 05:21:07 10° NNE 05:26:10 70° ESE 05:31:11 10° S visible
16 Feb 14.8 18:13:03 10° WSW 18:14:34 11° W 18:16:06 10° WNW visible
17 Feb 13.2 04:42:25 10° NE 04:46:39 27° E 04:50:52 10° SSE visible
18 Feb 11.0 05:41:04 10° N 05:46:08 74° WNW 05:51:09 10° SSW visible
19 Feb 12.4 05:01:55 10° NNE 05:06:43 42° E 05:11:29 10° S visible
20 Feb 13.9 04:23:55 10° NE 04:27:06 17° E 04:30:15 10° SE visible
20 Feb 11.4 06:01:13 10° N 06:06:02 46° WNW 06:10:49 10° SW visible
